�������l�o���
Date,Time,MP-1(��Sv/h),MP-2(��Sv/h),MP-3(��Sv/h),MP-4(��Sv/h),MP-5(��Sv/h),MP-6(��Sv/h),MP-7(��Sv/h),MP-8(��Sv/h),����,����(m/s),���J
2022/03/30,00:00,0.575,0.855,0.547,1.049,0.739,0.348,0.601,0.568,��쐼,2.6,��
2022/03/30,00:10,0.574,0.855,0.547,1.051,0.738,0.347,0.601,0.569,�쐼,3.2,��
2022/03/30,00:20,0.577,0.857,0.545,1.049,0.740,0.346,0.599,0.568,�쐼,3.2,��
2022/03/30,00:30,0.576,0.855,0.545,1.047,0.737,0.347,0.600,0.568,�쐼,2.0,��
2022/03/30,00:40,0.575,0.856,0.546,1.049,0.739,0.346,0.601,0.568,��,0.8,��
2022/03/30,00:50,0.577,0.855,0.545,1.049,0.738,0.346,0.602,0.569,-,CALM,��
2022/03/30,01:00,0.575,0.856,0.547,1.050,0.738,0.348,0.602,0.569,��,0.9,��
2022/03/30,01:10,0.575,0.855,0.547,1.049,0.738,0.346,0.601,0.569,��쓌,1.2,��
2022/03/30,01:20,0.574,0.856,0.547,1.050,0.740,0.348,0.602,0.568,��쓌,2.6,��
2022/03/30,01:30,0.575,0.855,0.548,1.050,0.738,0.346,0.601,0.570,��,5.3,��
2022/03/30,01:40,0.575,0.856,0.545,1.050,0.739,0.347,0.600,0.569,��쓌,5.1,��
2022/03/30,01:50,0.574,0.855,0.546,1.052,0.737,0.346,0.601,0.568,��,4.0,��
2022/03/30,02:00,0.577,0.856,0.548,1.048,0.737,0.346,0.601,0.568,��쐼,3.2,��
2022/03/30,02:10,0.574,0.856,0.547,1.048,0.739,0.348,0.600,0.569,��,3.3,��
2022/03/30,02:20,0.575,0.856,0.546,1.049,0.738,0.346,0.600,0.569,��,4.3,��
2022/03/30,02:30,0.576,0.854,0.548,1.050,0.739,0.348,0.602,0.568,��쓌,4.2,��
2022/03/30,02:40,0.576,0.854,0.546,1.049,0.739,0.346,0.601,0.568,��,4.7,��
2022/03/30,02:50,0.577,0.854,0.547,1.050,0.738,0.347,0.601,0.568,��,4.5,��
2022/03/30,03:00,0.575,0.854,0.547,1.050,0.737,0.347,0.599,0.569,��,3.7,��
2022/03/30,03:10,0.576,0.854,0.548,1.050,0.740,0.347,0.601,0.569,��,4.1,��
2022/03/30,03:20,0.576,0.853,0.546,1.050,0.736,0.349,0.601,0.570,��쐼,4.2,��
2022/03/30,03:30,0.576,0.856,0.546,1.048,0.738,0.347,0.601,0.570,��쐼,4.3,��
2022/03/30,03:40,0.574,0.855,0.548,1.049,0.738,0.347,0.601,0.569,��쐼,4.4,��
2022/03/30,03:50,0.577,0.855,0.546,1.049,0.735,0.348,0.602,0.569,��쐼,4.5,��
2022/03/30,04:00,0.577,0.855,0.547,1.048,0.736,0.348,0.601,0.568,��쐼,3.9,��
2022/03/30,04:10,0.578,0.855,0.547,1.048,0.737,0.348,0.602,0.568,��쐼,3.7,��
2022/03/30,04:20,0.577,0.853,0.548,1.049,0.737,0.348,0.600,0.569,��쐼,4.0,��
2022/03/30,04:30,0.577,0.854,0.547,1.047,0.738,0.347,0.602,0.569,��쐼,3.4,��
2022/03/30,04:40,0.575,0.855,0.546,1.050,0.737,0.348,0.601,0.568,��쐼,3.7,��
2022/03/30,04:50,0.575,0.853,0.546,1.051,0.739,0.347,0.600,0.569,��쐼,5.1,��
2022/03/30,05:00,0.577,0.855,0.547,1.050,0.739,0.347,0.601,0.569,��쐼,7.2,��
2022/03/30,05:10,0.576,0.851,0.547,1.051,0.737,0.347,0.601,0.568,��쐼,8.8,��
2022/03/30,05:20,0.575,0.855,0.547,1.051,0.738,0.347,0.602,0.570,��쐼,9.1,��
2022/03/30,05:30,0.577,0.855,0.548,1.048,0.737,0.348,0.601,0.568,��쐼,7.0,��
2022/03/30,05:40,0.576,0.853,0.546,1.048,0.737,0.348,0.602,0.571,��쐼,7.0,��
2022/03/30,05:50,0.577,0.855,0.548,1.049,0.738,0.348,0.603,0.570,��쐼,6.7,��
2022/03/30,06:00,0.577,0.852,0.547,1.048,0.737,0.347,0.603,0.569,��쐼,6.8,��
2022/03/30,06:10,0.577,0.856,0.547,1.050,0.737,0.348,0.600,0.569,��쐼,7.2,��
2022/03/30,06:20,0.577,0.855,0.549,1.050,0.739,0.347,0.603,0.569,��쐼,7.4,��
2022/03/30,06:30,0.577,0.857,0.549,1.050,0.737,0.348,0.602,0.569,��쐼,6.5,��
2022/03/30,06:40,0.577,0.858,0.549,1.049,0.736,0.348,0.602,0.567,��쐼,7.0,��
2022/03/30,06:50,0.577,0.854,0.548,1.050,0.739,0.349,0.604,0.569,��쐼,7.1,��
2022/03/30,07:00,0.576,0.855,0.547,1.047,0.737,0.348,0.603,0.568,��쐼,7.5,��
2022/03/30,07:10,0.578,0.857,0.549,1.050,0.738,0.348,0.603,0.569,��쐼,7.9,��
2022/03/30,07:20,0.577,0.857,0.548,1.050,0.739,0.347,0.604,0.569,��쐼,7.2,��
2022/03/30,07:30,0.578,0.857,0.548,1.051,0.740,0.348,0.603,0.569,�쐼,6.8,��
2022/03/30,07:40,0.579,0.855,0.548,1.049,0.737,0.346,0.604,0.569,�쐼,5.6,��
2022/03/30,07:50,0.578,0.855,0.548,1.051,0.737,0.346,0.603,0.570,�쐼,5.4,��
2022/03/30,08:00,0.578,0.855,0.550,1.051,0.739,0.346,0.605,0.570,��쐼,7.0,��
2022/03/30,08:10,0.577,0.854,0.549,1.050,0.737,0.346,0.602,0.569,��쐼,7.1,��
2022/03/30,08:20,0.577,0.855,0.547,1.049,0.739,0.346,0.601,0.569,��쐼,6.9,��
2022/03/30,08:30,0.581,0.852,0.549,1.050,0.738,0.347,0.602,0.569,��쐼,5.5,��
2022/03/30,08:40,0.577,0.850,0.550,1.051,0.739,0.348,0.604,0.570,��쐼,6.2,��
2022/03/30,08:50,0.579,0.853,0.549,1.051,0.737,0.347,0.604,0.568,�쐼,4.9,��
2022/03/30,09:00,0.577,0.854,0.550,1.051,0.738,0.347,0.602,0.569,��쐼,5.9,��
2022/03/30,09:10,0.578,0.852,0.548,1.051,0.740,0.347,0.602,0.568,��쐼,7.2,��
2022/03/30,09:20,0.578,0.850,0.550,1.051,0.738,0.347,0.602,0.568,�쐼,6.2,��
2022/03/30,09:30,0.579,0.852,0.547,1.051,0.738,0.347,0.604,0.566,�쐼,5.5,��
2022/03/30,09:40,0.579,0.853,0.549,1.052,0.738,0.346,0.601,0.567,��쐼,6.6,��
2022/03/30,09:50,0.579,0.853,0.548,1.052,0.736,0.347,0.602,0.568,�쐼,6.9,��
2022/03/30,10:00,0.580,0.854,0.548,1.052,0.738,0.348,0.602,0.567,��쐼,7.8,��
2022/03/30,10:10,0.577,0.853,0.548,1.050,0.737,0.348,0.603,0.569,�쐼,7.3,��
2022/03/30,10:20,0.581,0.855,0.549,1.051,0.739,0.347,0.603,0.568,��쐼,7.3,��
2022/03/30,10:30,0.579,0.850,0.548,1.055,0.738,0.347,0.602,0.567,��쐼,5.9,��
2022/03/30,10:40,0.580,0.853,0.547,1.054,0.741,0.349,0.603,0.568,��,7.4,��
2022/03/30,10:50,0.580,0.853,0.547,1.054,0.737,0.349,0.603,0.569,��,8.1,��
2022/03/30,11:00,0.580,0.856,0.547,1.055,0.740,0.344,0.604,0.569,��,9.9,��
2022/03/30,11:10,0.577,0.855,0.548,1.055,0.740,0.344,0.605,0.568,��,10.5,��
2022/03/30,11:20,0.580,0.855,0.548,1.053,0.740,0.348,0.602,0.569,��,9.2,��
2022/03/30,11:30,0.579,0.855,0.548,1.054,0.740,0.347,0.603,0.569,��,9.5,��
2022/03/30,11:40,0.579,0.857,0.548,1.053,0.739,0.349,0.603,0.569,��,8.3,��
2022/03/30,11:50,0.580,0.858,0.548,1.055,0.739,0.349,0.602,0.569,��,9.8,��
2022/03/30,12:00,0.580,0.859,0.549,1.055,0.741,0.348,0.604,0.570,��,11.3,��
2022/03/30,12:10,0.580,0.857,0.548,1.055,0.740,0.348,0.604,0.568,��쓌,11.3,��
2022/03/30,12:20,0.578,0.857,0.550,1.055,0.742,0.347,0.604,0.567,��,11.8,��
2022/03/30,12:30,0.579,0.857,0.548,1.055,0.741,0.349,0.603,0.568,��,12.7,��
2022/03/30,12:40,0.578,0.857,0.549,1.055,0.742,0.350,0.603,0.567,��,13.9,��
2022/03/30,12:50,0.580,0.856,0.548,1.054,0.742,0.349,0.603,0.568,��,11.3,��
2022/03/30,13:00,0.579,0.859,0.550,1.054,0.739,0.348,0.602,0.568,��,11.3,��
2022/03/30,13:10,0.580,0.858,0.549,1.053,0.741,0.349,0.603,0.568,��,9.3,��
2022/03/30,13:20,0.578,0.857,0.548,1.055,0.741,0.348,0.604,0.569,��,9.7,��
2022/03/30,13:30,0.579,0.856,0.549,1.053,0.744,0.347,0.602,0.568,��,9.3,��
2022/03/30,13:40,0.580,0.857,0.549,1.056,0.743,0.349,0.603,0.568,��,8.9,��
2022/03/30,13:50,0.580,0.856,0.549,1.055,0.743,0.347,0.602,0.570,��,9.3,��
2022/03/30,14:00,0.579,0.858,0.550,1.056,0.743,0.347,0.604,0.569,��,10.7,��
2022/03/30,14:10,0.579,0.856,0.550,1.054,0.741,0.347,0.603,0.568,��,10.0,��
2022/03/30,14:20,0.580,0.859,0.550,1.054,0.742,0.349,0.604,0.569,��,8.4,��
2022/03/30,14:30,0.580,0.857,0.550,1.058,0.745,0.348,0.605,0.568,��,9.4,��
2022/03/30,14:40,0.578,0.857,0.550,1.057,0.744,0.350,0.602,0.569,��,8.6,��
2022/03/30,14:50,0.580,0.858,0.548,1.057,0.742,0.349,0.605,0.569,��쓌,8.9,��
2022/03/30,15:00,0.579,0.857,0.550,1.056,0.744,0.349,0.604,0.569,��,8.9,��
2022/03/30,15:10,0.578,0.857,0.551,1.055,0.742,0.349,0.604,0.568,��,9.3,��
2022/03/30,15:20,0.580,0.859,0.548,1.055,0.743,0.350,0.602,0.568,��,9.2,��
2022/03/30,15:30,0.580,0.859,0.550,1.057,0.743,0.349,0.604,0.570,��,8.8,��
2022/03/30,15:40,0.579,0.860,0.549,1.057,0.743,0.349,0.604,0.569,��,9.1,��
2022/03/30,15:50,0.580,0.859,0.550,1.056,0.745,0.349,0.604,0.569,��,9.2,��
2022/03/30,16:00,0.581,0.860,0.550,1.058,0.743,0.350,0.604,0.568,��,9.7,��
2022/03/30,16:10,0.580,0.860,0.551,1.055,0.744,0.348,0.603,0.570,��,9.5,��
2022/03/30,16:20,0.581,0.859,0.550,1.055,0.745,0.350,0.604,0.568,��,8.6,��
2022/03/30,16:30,0.579,0.860,0.549,1.056,0.743,0.350,0.603,0.571,��,8.0,��
2022/03/30,16:40,0.580,0.861,0.549,1.055,0.744,0.350,0.605,0.568,��,8.8,��
2022/03/30,16:50,0.582,0.860,0.550,1.055,0.744,0.350,0.604,0.569,��,10.9,��
2022/03/30,17:00,0.582,0.860,0.550,1.057,0.744,0.351,0.604,0.570,��,11.3,��
2022/03/30,17:10,0.583,0.861,0.549,1.056,0.746,0.351,0.604,0.572,��쐼,8.3,��
2022/03/30,17:20,0.583,0.862,0.551,1.054,0.742,0.349,0.604,0.571,��,11.1,��
2022/03/30,17:30,0.584,0.860,0.550,1.055,0.743,0.350,0.604,0.572,��,9.6,��
2022/03/30,17:40,0.583,0.862,0.550,1.055,0.741,0.349,0.604,0.573,��,10.0,��
2022/03/30,17:50,0.584,0.860,0.548,1.056,0.742,0.349,0.603,0.573,��,9.6,��
2022/03/30,18:00,0.582,0.863,0.551,1.057,0.743,0.350,0.604,0.572,��,9.7,��
2022/03/30,18:10,0.582,0.862,0.551,1.057,0.741,0.350,0.603,0.572,��,9.4,��
2022/03/30,18:20,0.581,0.863,0.552,1.057,0.744,0.350,0.606,0.572,��,9.2,��
2022/03/30,18:30,0.584,0.864,0.553,1.057,0.743,0.350,0.605,0.571,��쐼,8.5,��
2022/03/30,18:40,0.583,0.863,0.552,1.056,0.743,0.351,0.604,0.570,��쐼,9.9,��
2022/03/30,18:50,0.582,0.863,0.552,1.055,0.744,0.351,0.605,0.572,��쐼,10.2,��
2022/03/30,19:00,0.584,0.863,0.551,1.058,0.745,0.351,0.606,0.573,��쐼,9.7,��
2022/03/30,19:10,0.583,0.862,0.552,1.057,0.745,0.351,0.606,0.572,��쐼,9.7,��
2022/03/30,19:20,0.584,0.863,0.553,1.056,0.746,0.350,0.606,0.573,��쐼,9.3,��
2022/03/30,19:30,0.583,0.863,0.553,1.055,0.746,0.350,0.605,0.572,��쐼,9.2,��
2022/03/30,19:40,0.585,0.863,0.552,1.058,0.745,0.350,0.605,0.573,��쐼,9.7,��
2022/03/30,19:50,0.585,0.863,0.553,1.056,0.746,0.350,0.606,0.571,��쐼,8.4,��
2022/03/30,20:00,0.584,0.862,0.552,1.056,0.746,0.349,0.606,0.572,��쐼,8.0,��
2022/03/30,20:10,0.584,0.864,0.551,1.058,0.745,0.352,0.607,0.571,��,5.6,��
2022/03/30,20:20,0.583,0.865,0.552,1.057,0.745,0.351,0.605,0.572,��쐼,6.5,��
2022/03/30,20:30,0.584,0.865,0.552,1.057,0.746,0.350,0.606,0.571,��,6.8,��
2022/03/30,20:40,0.584,0.864,0.551,1.055,0.746,0.352,0.606,0.573,��,7.5,��
2022/03/30,20:50,0.584,0.862,0.551,1.058,0.746,0.351,0.606,0.573,��,7.2,��
2022/03/30,21:00,0.584,0.863,0.552,1.055,0.742,0.351,0.606,0.571,��,5.9,��
2022/03/30,21:10,0.582,0.861,0.552,1.054,0.746,0.351,0.607,0.572,��쐼,5.6,��
2022/03/30,21:20,0.583,0.862,0.551,1.056,0.746,0.350,0.606,0.571,��,5.6,��
2022/03/30,21:30,0.583,0.863,0.552,1.056,0.745,0.351,0.607,0.571,��쐼,5.2,��
2022/03/30,21:40,0.583,0.862,0.551,1.058,0.746,0.350,0.605,0.572,�쐼,4.3,��
2022/03/30,21:50,0.583,0.863,0.552,1.056,0.743,0.350,0.608,0.570,��쐼,5.4,��
2022/03/30,22:00,0.583,0.862,0.552,1.055,0.746,0.350,0.607,0.570,��쐼,4.5,��
2022/03/30,22:10,0.582,0.862,0.551,1.057,0.746,0.350,0.606,0.572,��쐼,3.9,��
2022/03/30,22:20,0.583,0.862,0.552,1.057,0.744,0.351,0.606,0.572,�쐼,4.7,��
2022/03/30,22:30,0.584,0.861,0.551,1.058,0.745,0.350,0.605,0.572,�쐼,4.5,��
2022/03/30,22:40,0.584,0.864,0.552,1.058,0.746,0.351,0.605,0.573,�쐼,4.2,��
2022/03/30,22:50,0.585,0.863,0.552,1.059,0.744,0.350,0.605,0.572,��쐼,4.7,��
2022/03/30,23:00,0.584,0.864,0.551,1.055,0.746,0.351,0.605,0.571,��쐼,5.8,��
2022/03/30,23:10,0.585,0.863,0.552,1.057,0.746,0.351,0.604,0.571,��쐼,5.7,��
2022/03/30,23:20,0.585,0.864,0.552,1.056,0.746,0.352,0.606,0.571,��쐼,5.4,��
2022/03/30,23:30,0.582,0.864,0.552,1.058,0.746,0.351,0.606,0.571,���k��,2.2,��
2022/03/30,23:40,0.583,0.864,0.552,1.059,0.747,0.349,0.606,0.572,�k�k��,3.6,��
2022/03/30,23:50,0.585,0.864,0.552,1.059,0.749,0.351,0.606,0.570,�k��,3.8,��
